Regional Weather Roundup
Issued by NWS Memphis, TN

Home | Current Version | Previous Version | Text Only | Print | Product List | Glossary On
Versions: 1 2 3 4 5 6 7 8 9 10 11 12 13 14 15 16 17 18 19 20 21 22 23 24 25 26 27 28 29 30 31 32 33 34 35 36 37 38 39 40 41 42 43 44 45 46 47 48 49 50
000
ASUS44 KMEG 081710
RWRMEG
MEMPHIS CWA HOURLY WEATHER ROUNDUP
NATIONAL WEATHER SERVICE MEMPHIS TN
1100 AM CST MON FEB 08 2016

...WEST TENNESSEE...

CITY           SKY/WX    TMP DP  RH WIND       PRES   REMARKS
MEMPHIS INTL   CLOUDY    43  22  43 NW16G35   29.96R
NWS MEMPHIS      N/A     42 N/A N/A MISG        N/A
JACKSON        CLOUDY    41  25  53 W15G29    29.90R
DYERSBURG      CLOUDY    39  19  45 NW14G31   29.93R WCI  31
UNION CITY     CLOUDY    36  27  69 NW17      29.87R WCI  25
PARIS          CLOUDY    37  23  56 W12       29.84S WCI  30


...EASTERN ARKANSAS...

CITY           SKY/WX    TMP DP  RH WIND       PRES   REMARKS
JONESBORO      CLOUDY    40  20  44 NW17G30   29.96R WCI  31
WEST MEMPHIS   CLOUDY    42  25  50 NW15G26   29.97S
BATESVILLE     CLOUDY    43  16  33 W9G16     30.00S
NEWPORT        CLOUDY    44  19  37 NW22G29   30.00R
WALNUT RIDGE   CLOUDY    41  18  38 NW18G30   29.96S
BLYTHEVILLE    MOSUNNY   47  21  35 NW29G38   29.94R
NW BLYTHEVILLE PTSUNNY   41  19  42 MISG      29.94R
SEARCY         CLOUDY    44  19  36 NW16G25   30.04R
STUTTGART      PTSUNNY   45  21  39 NW17G30   30.04S
PINE BLUFF     PTSUNNY   46  18  32 W22G32    30.07R
MONTICELLO     SUNNY     48  18  30 W20G29    30.06S


...NORTH MISSISSIPPI...

CITY           SKY/WX    TMP DP  RH WIND       PRES   REMARKS
TUPELO         CLOUDY    48  20  32 W9G22     29.93F
OXFORD         MOSUNNY   45  21  39 NW21G29   29.97S
OLIVE BRANCH   PTSUNNY   41  25  52 NW21G35   29.94R
TUNICA         PTSUNNY   43  23  45 NW18G29   30.00S
CORINTH        CLOUDY    45  23  42 W16G24    29.89F
GREENWOOD      PTSUNNY   50  21  32 W10G26    30.02R
COLUMBUS       MOSUNNY   51  24  34 NW18G26   29.93F
GOLDEN TRIANGL MOSUNNY   52  25  35 W14G23    29.95F


...SOUTHEAST MISSOURI...

CITY           SKY/WX    TMP DP  RH WIND       PRES   REMARKS
WEST PLAINS    CLOUDY    37  16  42 NW18G39   29.92S WCI  27
POPLAR BLUFF   CLOUDY    38  20  48 NW23G31   29.90S WCI  27
CAPE GIRARDEAU FLURRIES  33  26  75 NW14G24   29.88S WCI  23


...NORTHWEST ALABAMA...

CITY           SKY/WX    TMP DP  RH WIND       PRES   REMARKS
MUSCLE SHOALS  CLOUDY    48  23  37 W18G29    29.88F


...MIDDLE TENNESSEE...

CITY           SKY/WX    TMP DP  RH WIND       PRES   REMARKS
NASHVILLE      CLOUDY    42  23  46 W12       29.82R
CLARKSVILLE    CLOUDY    40  24  53 W14G21    29.81R WCI  32
COLUMBIA       CLOUDY    43  27  52 W9        29.82F


...WESTERN KENTUCKY...

CITY           SKY/WX    TMP DP  RH WIND       PRES   REMARKS
PADUCAH        LGT SNOW  33  26  75 NW15G29   29.85R WCI  23
FORT CAMPBELL  FLURRIES  39  25  57 W13       29.80S WCI  32


...CENTRAL ARKANSAS...

CITY           SKY/WX    TMP DP  RH WIND       PRES   REMARKS
LITTLE ROCK    MOSUNNY   47  16  29 NW24G32   30.06S


SKY/WX REPORTED AS FAIR MEANS FEW OR NO CLOUDS BELOW
12 THOUSAND FEET.





USA.gov is the U.S. government's official web portal to all federal, state and local government web resources and services.